Time,TemperatureF,DewpointF,PressureIn,WindDirection,WindDirectionDegrees,WindSpeedMPH,WindSpeedGustMPH,Humidity,HourlyPrecipIn,Conditions,Clouds,dailyrainin,SolarRadiationWatts/m^2,SoftwareType,DateUTC
2013-05-07 00:00:00,37.0,-99.9,44.89,WNW,294,5.0,19.0,-999,-99.99,,,0.00,0.000000,,2013-05-07 07:00:00,
2013-05-07 01:00:00,36.0,-99.9,44.89,North,-999,-999.0,-999.0,-999,-99.99,,,-99.99,,,2013-05-07 08:00:00,
2013-05-07 01:52:00,36.0,-99.9,44.89,North,-999,-999.0,-999.0,-999,-99.99,,,-99.99,,,2013-05-07 08:52:00,
2013-05-07 02:00:00,36.0,-99.9,44.89,WNW,299,5.0,17.0,-999,-99.99,,,0.00,0.000000,,2013-05-07 09:00:00,
2013-05-07 03:00:00,35.0,-99.9,44.89,WNW,290,5.0,15.0,-999,-99.99,,,0.00,0.000000,,2013-05-07 10:00:00,
2013-05-07 04:00:00,35.0,-99.9,44.89,WNW,301,5.0,17.0,-999,-99.99,,,0.00,0.000000,,2013-05-07 11:00:00,
2013-05-07 05:00:00,35.0,-99.9,44.89,WNW,291,4.0,15.0,-999,-99.99,,,0.00,0.000000,,2013-05-07 12:00:00,
2013-05-07 06:00:00,34.0,-99.9,44.89,WNW,290,4.0,15.0,-999,-99.99,,,-99.99,0.600000,,2013-05-07 13:00:00,
2013-05-07 07:00:00,36.0,-99.9,44.89,WNW,296,4.0,11.0,-999,-99.99,,,0.01,6.100000,,2013-05-07 14:00:00,
2013-05-07 10:00:00,37.0,-99.9,44.89,North,-999,-999.0,-999.0,-999,-99.99,,,0.00,,,2013-05-07 17:00:00,
2013-05-07 11:00:00,38.0,-99.9,44.89,NNW,331,4.0,12.0,-999,-99.99,,,0.00,25.299999,,2013-05-07 18:00:00,
2013-05-07 12:00:00,39.0,-99.9,44.89,NW,325,5.0,16.0,-999,-99.99,,,0.00,39.400002,,2013-05-07 19:00:00,
2013-05-07 13:00:00,43.0,-99.9,44.89,NW,325,5.0,19.0,-999,-99.99,,,0.00,48.200001,,2013-05-07 20:00:00,
2013-05-07 14:00:00,40.0,-99.9,44.89,NW,326,5.0,16.0,-999,-99.99,,,0.00,34.799999,,2013-05-07 21:00:00,
2013-05-07 15:00:00,41.0,-99.9,44.89,NNW,330,5.0,14.0,-999,-99.99,,,-99.99,33.000000,,2013-05-07 22:00:00,
2013-05-07 16:00:00,39.0,-99.9,44.89,NNW,330,5.0,19.0,-999,-99.99,,,0.00,18.600000,,2013-05-07 23:00:00,
2013-05-07 17:00:00,37.0,-99.9,44.89,NNW,331,4.0,12.0,-999,-99.99,,,0.00,4.900000,,2013-05-08 00:00:00,
2013-05-07 18:00:00,36.0,-99.9,44.89,NNW,341,3.0,12.0,-999,-99.99,,,0.00,1.800000,,2013-05-08 01:00:00,
2013-05-07 19:00:00,33.0,-99.9,44.89,North,2,2.0,12.0,-999,-99.99,,,0.00,0.000000,,2013-05-08 02:00:00,
2013-05-07 20:00:00,32.0,-99.9,44.89,NNW,337,2.0,8.0,-999,-99.99,,,0.00,0.000000,,2013-05-08 03:00:00,
2013-05-07 21:00:00,30.0,-99.9,44.89,North,-999,-999.0,-999.0,-999,-99.99,,,0.01,,,2013-05-08 04:00:00,
2013-05-07 22:00:00,30.0,-99.9,44.89,WNW,290,5.0,22.0,-999,-99.99,,,0.01,0.000000,,2013-05-08 05:00:00,
2013-05-07 23:00:00,29.0,-99.9,44.89,WNW,286,5.0,17.0,-999,-99.99,,,0.01,0.000000,,2013-05-08 06:00:00,